GW4921 Weather Reports


time (UTC)temp
C
wind
direction
speed
KPH
gust
KPH
rain 1hr
cm
rain 24hr
cm
rain mn
cm
humidity
%
barometer
mb
20260509064900 28 35 4.8 8.0 0.00 0.00 0.03 92
20260509064400 28 38 4.8 4.8 0.00 0.00 0.03 92
20260509063901 28 33 6.4 8.0 0.00 0.00 0.03 92
20260509063401 27 302 6.4 9.7 0.00 0.00 0.03 92
20260509062901 28 28 3.2 9.7 0.00 0.00 0.03 93
20260509062401 30 7 6.4 9.7 0.00 0.00 0.03 92
20260509061900 30 56 6.4 9.7 0.00 0.00 0.03 91
20260509061401 30 110 3.2 3.2 0.00 0.00 0.03 90
20260509060901 30 82 1.6 1.6 0.00 0.00 0.03 91
20260509060400 30 132 4.8 8.0 0.00 0.00 0.03 90
20260509055901 30 133 1.6 3.2 0.00 0.00 0.03 90
20260509055401 30 83 4.8 4.8 0.00 0.00 0.03 90
20260509054902 30 114 8.0 11.3 0.00 0.00 0.03 90
20260509054400 30 36 6.4 9.7 0.00 0.00 0.03 91
20260509053901 30 59 3.2 4.8 0.00 0.00 0.03 92
20260509053400 30 102 8.0 11.3 0.00 0.00 0.03 93
20260509052900 30 114 4.8 4.8 0.00 0.00 0.03 93
20260509052400 30 105 8.0 9.7 0.00 0.00 0.03 92
20260509051900 30 63 3.2 3.2 0.00 0.00 0.03 92
20260509051400 30 103 4.8 8.0 0.00 0.00 0.03 92
20260509050902 30 51 4.8 8.0 0.00 0.00 0.03 92
20260509050400 30 71 0.0 1.6 0.00 0.00 0.03 93
20260509045900 29 78 1.6 3.2 0.00 0.00 0.03 94
20260509045400 28 58 4.8 4.8 0.00 0.00 0.03 94
20260509044900 28 107 3.2 3.2 0.00 0.00 0.03 95
20260509044400 28 67 1.6 1.6 0.00 0.00 0.03 95
20260509043900 28 352 0.0 1.6 0.00 0.00 0.03 95
20260509043400 28 111 1.6 1.6 0.00 0.00 0.03 96
20260509042901 28 33 4.8 4.8 0.00 0.00 0.03 96
20260509042401 28 35 4.8 8.0 0.00 0.00 0.03 96
20260509041900 28 43 4.8 4.8 0.00 0.00 0.03 96
20260509041401 27 92 4.8 8.0 0.00 0.00 0.03 97
20260509040900 27 58 3.2 4.8 0.00 0.00 0.03 97
20260509040401 27 70 0.0 0.0 0.00 0.00 0.03 97
20260509035900 27 59 1.6 3.2 0.00 0.00 0.03 97
20260509035400 27 56 3.2 3.2 0.00 0.00 0.03 97
20260509034900 27 5 3.2 3.2 0.00 0.00 0.03 97
20260509034400 27 33 4.8 8.0 0.00 0.00 0.03 97
20260509033900 27 69 4.8 4.8 0.00 0.00 0.03 97
20260509033400 27 96 0.0 1.6 0.00 0.00 0.03 97
20260509032901 26 37 1.6 1.6 0.00 0.00 0.03 97
20260509032400 27 56 3.2 4.8 0.00 0.00 0.03 97
20260509031904 26 93 0.0 0.0 0.00 0.00 0.03 98
20260509031400 26 64 0.0 1.6 0.00 0.00 0.03 98
20260509030901 26 3 1.6 3.2 0.00 0.00 0.03 98
20260509030400 26 29 3.2 3.2 0.00 0.00 0.03 98
20260509025900 26 32 1.6 3.2 0.00 0.00 0.03 99
20260509025400 26 16 1.6 4.8 0.00 0.00 0.03 99
20260509024901 26 71 1.6 1.6 0.00 0.00 0.03 99
20260509024401 26 74 3.2 3.2 0.00 0.00 0.03 99
20260509023900 26 50 6.4 8.0 0.00 0.00 0.03 99
20260509023406 26 50 1.6 3.2 0.00 0.00 0.03 99
20260509022901 26 96 4.8 4.8 0.00 0.00 0.03 99
20260509022400 27 351 8.0 9.7 0.00 0.00 0.03 99
20260509021901 27 12 1.6 3.2 0.00 0.00 0.03 99
20260509021401 27 51 3.2 3.2 0.00 0.00 0.03 99
20260509020900 27 69 0.0 0.0 0.00 0.00 0.03 99
20260509020400 27 62 3.2 3.2 0.00 0.00 0.03 99
20260509015901 27 67 1.6 1.6 0.00 0.00 0.03 99
20260509015400 27 350 4.8 8.0 0.00 0.00 0.03 99
20260509014900 27 85 3.2 3.2 0.00 0.00 0.03 99
20260509014401 27 13 4.8 4.8 0.00 0.00 0.03 99
20260509013901 27 22 3.2 3.2 0.00 0.00 0.03 99
20260509013401 27 31 6.4 8.0 0.00 0.00 0.03 99
20260509012900 27 342 8.0 9.7 0.00 0.00 0.03 99
20260509012401 27 19 1.6 3.2 0.00 0.00 0.03 99
20260509011903 26 97 0.0 1.6 0.00 0.00 0.03 99
20260509011402 26 43 3.2 4.8 0.00 0.00 0.03 99
20260509010900 26 351 1.6 3.2 0.00 0.00 0.03 99
20260509010400 26 33 1.6 3.2 0.00 0.00 0.03 99
20260509005900 26 26 1.6 3.2 0.00 0.00 0.03 99
20260509005400 26 32 3.2 3.2 0.00 0.00 0.03 99
20260509004902 26 350 4.8 4.8 0.00 0.00 0.03 99
20260509004400 26 9 1.6 3.2 0.00 0.00 0.03 99
20260509003901 26 32 1.6 1.6 0.00 0.00 0.03 99
20260509003400 26 4 3.2 3.2 0.00 0.00 0.03 99
20260509002901 26 16 6.4 9.7 0.00 0.00 0.03 99
20260508130900 28 106 6.4 11.3 0.00 0.00 0.00 90
20260508130400 28 87 11.3 12.9 0.00 0.00 0.00 90
20260508125901 28 79 4.8 8.0 0.00 0.00 0.00 91
20260508125401 28 41 4.8 9.7 0.00 0.00 0.00 91
20260508124901 28 64 0.0 1.6 0.00 0.00 0.00 91
20260508124400 29 44 4.8 8.0 0.00 0.00 0.00 91
20260508123900 29 54 6.4 8.0 0.00 0.00 0.00 90
20260508123401 29 108 4.8 4.8 0.00 0.00 0.00 90
20260508122900 29 104 4.8 8.0 0.00 0.00 0.00 89
20260508122401 29 39 3.2 8.0 0.00 0.00 0.00 89
20260508121900 29 121 6.4 9.7 0.00 0.00 0.00 88
20260508121400 29 146 1.6 1.6 0.00 0.00 0.00 88
20260508120901 29 133 4.8 8.0 0.00 0.00 0.00 87
20260508120401 29 124 1.6 3.2 0.00 0.00 0.00 87
20260508115900 30 122 4.8 8.0 0.00 0.00 0.00 86
20260508115400 30 76 6.4 9.7 0.00 0.00 0.00 86
20260508114900 30 74 6.4 9.7 0.00 0.00 0.00 86
20260508114400 30 348 4.8 11.3 0.00 0.00 0.00 86
20260508113901 30 58 3.2 9.7 0.00 0.00 0.00 86
20260508113401 30 106 9.7 14.5 0.00 0.00 0.00 86
20260508112900 30 104 1.6 3.2 0.00 0.00 0.00 87
20260508112401 30 94 6.4 8.0 0.00 0.00 0.00 87
20260508111903 30 82 4.8 9.7 0.00 0.00 0.00 87
20260508111401 30 90 3.2 3.2 0.00 0.00 0.00 87
20260508110902 30 134 1.6 1.6 0.00 0.00 0.00 86
20260508110400 30 81 1.6 1.6 0.00 0.00 0.00 86
20260508105900 30 35 6.4 9.7 0.00 0.00 0.00 86
20260508105400 30 35 6.4 9.7 0.00 0.00 0.00 85
20260508104900 30 93 4.8 8.0 0.00 0.00 0.00 84
20260508104400 30 146 4.8 4.8 0.00 0.00 0.00 83
20260508103900 31 149 6.4 11.3 0.00 0.00 0.00 80
20260508103400 31 143 8.0 11.3 0.00 0.00 0.00 78
20260508102900 31 99 11.3 14.5 0.00 0.00 0.00 77
20260508102400 31 81 11.3 16.1 0.00 0.00 0.00 77
20260508101901 31 82 0.0 1.6 0.00 0.00 0.00 78
20260508101400 31 47 11.3 14.5 0.00 0.00 0.00 78
20260508100900 31 52 1.6 1.6 0.00 0.00 0.00 78
20260508100400 31 38 9.7 14.5 0.00 0.00 0.00 79
20260508095900 31 138 3.2 3.2 0.00 0.00 0.00 79
20260508095401 30 119 0.0 1.6 0.00 0.00 0.00 80
20260508094901 30 51 6.4 8.0 0.00 0.00 0.00 82
20260508094402 30 26 11.3 12.9 0.00 0.00 0.00 83
20260508093902 30 137 6.4 9.7 0.00 0.00 0.00 84
20260508093400 31 81 3.2 8.0 0.00 0.00 0.00 84
20260508092900 30 40 8.0 11.3 0.00 0.00 0.00 84
20260508092400 30 75 3.2 4.8 0.00 0.00 0.00 85
20260508091901 30 120 3.2 4.8 0.00 0.00 0.00 85
20260508091400 30 74 3.2 9.7 0.00 0.00 0.00 87
20260508090900 30 54 11.3 14.5 0.00 0.00 0.00 86
20260508090400 30 38 3.2 8.0 0.00 0.00 0.00 85
20260508085900 30 81 6.4 9.7 0.00 0.00 0.00 84
20260508085401 30 130 9.7 11.3 0.00 0.00 0.00 84
20260508084900 30 127 3.2 8.0 0.00 0.00 0.00 85
20260508084400 30 132 1.6 3.2 0.00 0.00 0.00 85
20260508083900 30 68 3.2 3.2 0.00 0.00 0.00 85
20260508083401 30 86 6.4 8.0 0.00 0.00 0.00 84
20260508082900 30 67 8.0 11.3 0.00 0.00 0.00 85
20260508082400 30 80 8.0 14.5 0.00 0.00 0.00 84
20260508081900 30 107 4.8 8.0 0.00 0.00 0.00 84
20260508081400 30 71 9.7 11.3 0.00 0.00 0.00 85
20260508080900 30 68 9.7 14.5 0.00 0.00 0.00 86
20260508080400 30 64 9.7 17.7 0.00 0.00 0.00 86
20260508075900 30 127 4.8 9.7 0.00 0.00 0.00 87
20260508075400 30 28 4.8 8.0 0.00 0.00 0.00 88
20260508074901 30 102 4.8 4.8 0.00 0.00 0.00 87
20260508074400 30 93 4.8 8.0 0.00 0.00 0.00 88
20260508073901 30 105 6.4 9.7 0.00 0.00 0.00 88
20260508073400 30 124 6.4 9.7 0.00 0.00 0.00 87
20260508072900 30 112 6.4 9.7 0.00 0.00 0.00 87
20260508072401 30 128 9.7 12.9 0.00 0.00 0.00 88
20260508071901 30 106 4.8 4.8 0.00 0.00 0.00 88
20260508071401 30 117 9.7 14.5 0.00 0.00 0.00 87
20260508070900 30 168 14.5 20.9 0.00 0.00 0.00 87
20260508070402 30 126 1.6 3.2 0.00 0.00 0.00 89
20260508065900 30 155 4.8 9.7 0.00 0.00 0.00 88
20260508065402 30 94 6.4 8.0 0.00 0.00 0.00 87